GW0392 Weather Reports


Display with metric or nautical units.
time (UTC)temp
F
wind
direction
speed
MPH
gust
MPH
rain 1hr
in
rain 24hr
in
rain mn
in
humidity
%
barometer
mb
20260508192128 70 224 0.0 3.0 0.00 0.00 0.00 43 1014.5
20260508191624 70 226 0.0 1.0 0.00 0.00 0.00 46 1014.5
20260508191121 69 226 0.0 1.0 0.00 0.00 0.00 47 1014.8
20260508190619 69 234 0.0 1.0 0.00 0.00 0.00 46 1014.6
20260508190115 70 241 0.0 0.0 0.00 0.00 0.00 45 1014.6
20260508185612 69 234 0.0 0.0 0.00 0.00 0.00 44 1014.9
20260508185109 69 237 1.0 2.0 0.00 0.00 0.00 41 1014.8
20260508184607 70 209 1.0 1.0 0.00 0.00 0.00 40 1015.0
20260508184104 71 233 0.0 2.0 0.00 0.00 0.00 41 1015.0
20260508183600 71 235 0.0 0.0 0.00 0.00 0.00 40 1015.3
20260508183056 71 228 0.0 0.0 0.00 0.00 0.00 41 1015.4
20260508182552 71 228 0.0 2.0 0.00 0.00 0.00 39 1015.8
20260508182049 71 236 0.0 2.0 0.00 0.00 0.00 46 1015.7
20260508181544 71 230 0.0 1.0 0.00 0.00 0.00 40 1015.8
20260508181042 71 231 2.0 2.0 0.00 0.00 0.00 38 1015.9
20260508180538 71 219 1.0 3.0 0.00 0.00 0.00 39 1016.0
20260508180035 71 231 0.0 2.0 0.00 0.00 0.00 41 1015.9
20260508175531 70 299 2.0 2.0 0.00 0.00 0.00 41 1015.8
20260508175029 69 224 2.0 3.0 0.00 0.00 0.00 39 1015.9
20260508174526 69 205 1.0 2.0 0.00 0.00 0.00 43 1016.2
20260508174023 69 205 2.0 3.0 0.00 0.00 0.00 40 1016.2
20260508173520 69 237 1.0 5.0 0.00 0.00 0.00 41 1016.4
20260508173016 70 197 1.0 1.0 0.00 0.00 0.00 39 1016.3
20260508172513 70 275 1.0 1.0 0.00 0.00 0.00 42 1016.5
20260508172009 70 299 3.0 3.0 0.00 0.00 0.00 41 1016.4
20260508171506 70 227 1.0 1.0 0.00 0.00 0.00 47 1016.7
20260508171003 70 219 0.0 0.0 0.00 0.00 0.00 45 1016.6
20260508170500 68 239 0.0 1.0 0.00 0.00 0.00 44 1016.5
20260508165957 67 208 1.0 2.0 0.00 0.00 0.00 43 1016.6
20260508165455 67 257 1.0 2.0 0.00 0.00 0.00 43 1016.7
20260508164950 67 233 1.0 3.0 0.00 0.00 0.00 41 1016.7
20260508164448 68 222 1.0 2.0 0.00 0.00 0.00 42 1017.0
20260508163944 67 233 1.0 2.0 0.00 0.00 0.00 42 1017.0
20260508163443 66 239 0.0 2.0 0.00 0.00 0.00 44 1017.5
20260508162938 66 250 1.0 1.0 0.00 0.00 0.00 44 1017.3
20260508162436 67 225 0.0 1.0 0.00 0.00 0.00 45 1017.5
20260508161932 66 210 1.0 6.0 0.00 0.00 0.00 43 1017.8
20260508161429 67 207 0.0 2.0 0.00 0.00 0.00 47 1017.7
20260508160927 67 317 3.0 3.0 0.00 0.00 0.00 43 1017.5
20260508160426 66 219 1.0 1.0 0.00 0.00 0.00 47 1017.9
20260508155921 66 231 0.0 1.0 0.00 0.00 0.00 48 1017.9
20260508155418 66 221 1.0 1.0 0.00 0.00 0.00 54 1018.2
20260508154915 65 228 1.0 1.0 0.00 0.00 0.00 52 1018.3
20260508154413 65 222 0.0 1.0 0.00 0.00 0.00 53 1018.2
20260508153909 64 224 0.0 1.0 0.00 0.00 0.00 56 1018.2
20260508153407 64 236 1.0 2.0 0.00 0.00 0.00 53 1018.2
20260508152902 65 235 1.0 2.0 0.00 0.00 0.00 55 1018.0
20260508152359 64 225 0.0 1.0 0.00 0.00 0.00 52 1018.2
20260508151855 64 229 0.0 0.0 0.00 0.00 0.00 53 1018.6
20260508151353 64 227 1.0 2.0 0.00 0.00 0.00 50 1018.6
20260508150849 64 228 1.0 2.0 0.00 0.00 0.00 55 1018.3
20260508150346 63 205 1.0 2.0 0.00 0.00 0.00 55 1018.4
20260508145842 63 220 1.0 2.0 0.00 0.00 0.00 65 1018.4
20260508145338 63 215 1.0 2.0 0.00 0.00 0.00 54 1018.4
20260508144835 63 212 1.0 3.0 0.00 0.00 0.00 55 1018.6
20260508144333 64 225 0.0 1.0 0.00 0.00 0.00 57 1018.5
20260508143830 62 239 0.0 1.0 0.00 0.00 0.00 60 1018.7
20260508143327 62 237 0.0 1.0 0.00 0.00 0.00 60 1018.6
20260508142824 61 239 0.0 0.0 0.00 0.00 0.00 63 1018.7
20260508142321 62 236 0.0 1.0 0.00 0.00 0.00 62 1018.9
20260508141817 63 236 1.0 1.0 0.00 0.00 0.00 60 1018.9
20260508141314 62 233 0.0 2.0 0.00 0.00 0.00 59 1018.7
20260508140812 62 222 1.0 1.0 0.00 0.00 0.00 59 1018.6
20260508140308 61 231 0.0 2.0 0.00 0.00 0.00 62 1018.8
20260508135804 61 235 0.0 0.0 0.00 0.00 0.00 66 1018.7
20260508135301 59 236 0.0 0.0 0.00 0.00 0.00 65 1018.9
20260508134756 60 237 0.0 0.0 0.00 0.00 0.00 72 1018.9
20260508134254 60 233 0.0 0.0 0.00 0.00 0.00 74 1018.9
20260508133750 58 235 0.0 0.0 0.00 0.00 0.00 79 1018.8
20260508133248 58 231 0.0 0.0 0.00 0.00 0.00 81 1018.7
20260508132745 57 244 0.0 0.0 0.00 0.00 0.00 81 1018.6
20260508132243 53 225 0.0 0.0 0.00 0.00 0.00 90 1018.6
20260508131738 51 226 0.0 0.0 0.00 0.00 0.00 97 1018.6
20260508131235 51 227 0.0 0.0 0.00 0.00 0.00 99 1018.8
20260508130731 51 228 0.0 0.0 0.00 0.00 0.00 99 1018.8
20260508130229 50 227 0.0 0.0 0.00 0.00 0.00 99 1018.8
20260508125724 50 227 0.0 0.0 0.00 0.00 0.00 99 1018.9
20260508125221 49 224 0.0 0.0 0.00 0.00 0.00 99 1019.0
20260508124719 49 227 0.0 0.0 0.00 0.00 0.00 99 1018.8
20260508124216 49 227 0.0 0.0 0.00 0.00 0.00 99 1019.0
20260508123714 48 227 0.0 0.0 0.00 0.00 0.00 99 1018.8
20260508123212 48 229 0.0 0.0 0.00 0.00 0.00 99 1018.9
20260508122708 48 228 0.0 0.0 0.00 0.00 0.00 99 1018.9
20260508122205 47 228 0.0 0.0 0.00 0.00 0.00 99 1018.8
20260508121702 47 229 0.0 0.0 0.00 0.00 0.00 99 1018.6
20260508121201 47 229 0.0 0.0 0.00 0.00 0.00 99 1018.4
20260508120658 46 231 0.0 0.0 0.00 0.00 0.00 99 1018.6
20260508120156 46 230 0.0 0.0 0.00 0.00 0.00 99 1018.6
20260508115653 46 229 0.0 0.0 0.00 0.00 0.00 99 1018.7
20260508115150 46 229 0.0 0.0 0.00 0.00 0.00 99 1018.5
20260508114647 45 226 0.0 0.0 0.00 0.00 0.00 99 1018.4
20260508114143 45 225 0.0 0.0 0.00 0.00 0.00 99 1018.3
20260508113640 45 227 0.0 0.0 0.00 0.00 0.00 99 1018.1
20260508113139 45 226 0.0 0.0 0.00 0.00 0.00 99 1017.9
20260508112634 45 226 0.0 0.0 0.00 0.00 0.00 99 1017.8
20260508112132 45 226 0.0 0.0 0.00 0.00 0.00 99 1017.9
20260508111628 45 226 0.0 0.0 0.00 0.00 0.00 99 1017.7
20260508111125 45 225 0.0 0.0 0.00 0.00 0.00 99 1017.3
20260508110623 45 226 0.0 0.0 0.00 0.00 0.00 99 1017.5
20260508110119 45 226 0.0 0.0 0.00 0.00 0.00 99 1017.7
20260508105614 45 225 0.0 0.0 0.00 0.00 0.00 99 1017.3
20260508105111 45 226 0.0 0.0 0.00 0.00 0.00 99 1017.4
20260508104609 45 219 0.0 0.0 0.00 0.00 0.00 99 1017.3
20260508104105 45 228 0.0 0.0 0.00 0.00 0.00 99 1017.1
20260508103603 45 228 0.0 0.0 0.00 0.00 0.00 99 1017.0
20260508103100 45 228 0.0 0.0 0.00 0.00 0.00 99 1016.9
20260508102557 45 228 0.0 0.0 0.00 0.00 0.00 99 1016.7
20260508102055 45 228 0.0 0.0 0.00 0.00 0.00 99 1016.7
20260508101552 45 228 0.0 0.0 0.00 0.00 0.00 99 1016.7
20260508101049 45 228 0.0 0.0 0.00 0.00 0.00 99 1016.6
20260508100547 45 228 0.0 0.0 0.00 0.00 0.00 99 1016.6
20260508100043 45 228 0.0 0.0 0.00 0.00 0.00 99 1016.8
20260508095541 46 228 0.0 0.0 0.00 0.00 0.00 99 1016.5
20260508095037 46 228 0.0 0.0 0.00 0.00 0.00 99 1016.5
20260508094535 46 228 0.0 0.0 0.00 0.00 0.00 99 1016.7
20260508094032 46 228 0.0 0.0 0.00 0.00 0.00 99 1016.7
20260508093528 46 228 0.0 0.0 0.00 0.00 0.00 99 1016.6
20260508093026 46 228 0.0 0.0 0.00 0.00 0.00 99 1016.5
20260508092523 46 228 0.0 0.0 0.00 0.00 0.00 99 1016.6
20260508092022 46 228 0.0 0.0 0.00 0.00 0.00 99 1016.6
20260508091519 46 228 0.0 0.0 0.00 0.00 0.00 99 1016.5
20260508091016 46 228 0.0 0.0 0.00 0.00 0.00 99 1016.4
20260508090514 45 228 0.0 0.0 0.00 0.00 0.00 99 1016.5
20260508090010 46 228 0.0 0.0 0.00 0.00 0.00 99 1016.4
20260508085507 46 228 0.0 0.0 0.00 0.00 0.00 99 1016.2
20260508085004 46 228 0.0 0.0 0.00 0.00 0.00 99 1016.1
20260508084501 46 228 0.0 0.0 0.00 0.00 0.00 99 1016.4
20260508083958 46 228 0.0 0.0 0.00 0.00 0.00 99 1016.3
20260508083455 46 228 0.0 0.0 0.00 0.00 0.00 99 1016.2
20260508082950 47 228 0.0 0.0 0.00 0.00 0.00 99 1016.3
20260508082447 47 229 0.0 0.0 0.00 0.00 0.00 99 1016.3
20260508081945 47 229 0.0 0.0 0.00 0.00 0.00 99 1016.2
20260508081442 47 229 0.0 0.0 0.00 0.00 0.00 99 1016.4
20260508080938 47 228 0.0 0.0 0.00 0.00 0.00 99 1016.4
20260508080436 47 228 0.0 0.0 0.00 0.00 0.00 99 1016.4
20260508075933 47 228 0.0 0.0 0.00 0.00 0.00 99 1016.3
20260508075430 47 228 0.0 0.0 0.00 0.00 0.00 99 1016.2
20260508074927 47 228 0.0 0.0 0.00 0.00 0.00 99 1016.4
20260508074425 47 224 0.0 0.0 0.00 0.00 0.00 99 1016.3
20260508073921 47 223 0.0 0.0 0.00 0.00 0.00 99 1016.4
20260508073419 47 229 0.0 0.0 0.00 0.00 0.00 99 1016.4
20260508072916 47 229 0.0 0.0 0.00 0.00 0.00 99 1016.4
20260508072412 47 229 0.0 0.0 0.00 0.00 0.00 99 1016.6
20260508071909 48 229 0.0 0.0 0.00 0.00 0.00 99 1016.2
20260508071408 48 229 0.0 0.0 0.00 0.00 0.00 99 1016.5
20260508070905 48 229 0.0 0.0 0.00 0.00 0.00 99 1016.4
20260508070403 48 229 0.0 0.0 0.00 0.00 0.00 99 1016.7
20260508065900 48 229 0.0 0.0 0.00 0.00 0.00 99 1016.6
20260508065358 48 228 0.0 0.0 0.00 0.00 0.00 99 1016.6
20260508064856 48 225 0.0 0.0 0.00 0.00 0.00 99 1016.5
20260508064353 48 228 0.0 0.0 0.00 0.00 0.00 99 1016.6
20260508063851 49 229 0.0 0.0 0.00 0.00 0.00 99 1016.6
20260508063348 49 225 0.0 0.0 0.00 0.00 0.00 99 1016.8
20260508062845 48 229 0.0 0.0 0.00 0.00 0.00 99 1016.7
20260508062343 48 229 0.0 0.0 0.00 0.00 0.00 99 1016.8
20260508061840 48 229 0.0 0.0 0.00 0.00 0.00 99 1016.8
20260508061337 48 229 0.0 0.0 0.00 0.00 0.00 99 1016.6
20260508060833 48 229 0.0 0.0 0.00 0.00 0.00 99 1016.8
20260508060332 48 226 0.0 0.0 0.00 0.00 0.00 99 1016.7
20260508055826 48 229 0.0 0.0 0.00 0.00 0.00 99 1016.8
20260508055324 48 225 0.0 0.0 0.00 0.00 0.00 99 1016.6
20260508054820 48 225 0.0 0.0 0.00 0.00 0.00 99 1016.5
20260508054318 48 227 0.0 0.0 0.00 0.00 0.00 99 1016.8
20260508053815 48 230 0.0 0.0 0.00 0.00 0.00 99 1016.7
20260508053312 49 225 0.0 0.0 0.00 0.00 0.00 99 1016.6
20260508052809 49 225 0.0 0.0 0.00 0.00 0.00 99 1016.6
20260508052307 49 225 0.0 0.0 0.00 0.00 0.00 99 1016.6
20260508051803 49 225 0.0 0.0 0.00 0.00 0.00 99 1016.6
20260508051258 49 225 0.0 0.0 0.00 0.00 0.00 99 1016.6
20260508050755 49 225 0.0 0.0 0.00 0.00 0.00 99 1016.5
20260508050252 49 225 0.0 0.0 0.00 0.00 0.00 99 1016.4
20260508045747 49 224 0.0 0.0 0.00 0.00 0.00 99 1016.5
20260508045245 49 224 0.0 0.0 0.00 0.00 0.00 99 1016.5
20260508044743 49 225 0.0 0.0 0.00 0.00 0.00 98 1016.4
20260508044240 50 224 0.0 0.0 0.00 0.00 0.00 98 1016.6
20260508043735 50 225 0.0 0.0 0.00 0.00 0.00 98 1016.6
20260508043233 50 225 0.0 0.0 0.00 0.00 0.00 98 1016.4
20260508042729 50 225 0.0 0.0 0.00 0.00 0.00 98 1016.5
20260508042227 50 225 0.0 0.0 0.00 0.00 0.00 98 1016.4
20260508041723 50 225 0.0 0.0 0.00 0.00 0.00 97 1016.4
20260508041220 50 232 0.0 0.0 0.00 0.00 0.00 97 1016.4
20260508040717 50 228 0.0 0.0 0.00 0.00 0.00 97 1016.2
20260508040214 50 228 0.0 0.0 0.00 0.00 0.00 97 1016.3
20260508035711 51 226 0.0 0.0 0.00 0.30 0.30 97 1016.3
20260508035209 51 225 0.0 0.0 0.00 0.30 0.30 97 1016.2
20260508034705 51 231 0.0 0.0 0.00 0.30 0.30 97 1016.1
20260508034203 51 229 0.0 0.0 0.00 0.30 0.30 97 1016.2
20260508033659 51 228 0.0 0.0 0.00 0.30 0.30 97 1016.2
20260508033158 51 228 0.0 0.0 0.00 0.30 0.30 97 1016.2
20260508032654 52 229 0.0 0.0 0.00 0.30 0.30 96 1016.1
20260508032152 52 229 0.0 0.0 0.00 0.30 0.30 96 1016.1
20260508031649 52 229 0.0 0.0 0.00 0.30 0.30 96 1016.0
20260508031145 52 229 0.0 0.0 0.00 0.30 0.30 96 1016.1
20260508030641 52 225 0.0 0.0 0.00 0.30 0.30 96 1016.0
20260508030139 53 226 0.0 0.0 0.00 0.30 0.30 96 1015.8
20260508025635 53 235 0.0 0.0 0.00 0.30 0.30 95 1015.9
20260508025132 53 223 0.0 0.0 0.00 0.30 0.30 95 1015.6
20260508024628 53 226 0.0 0.0 0.00 0.30 0.30 94 1015.6
20260508024126 53 226 0.0 0.0 0.00 0.30 0.30 95 1015.6
20260508023621 53 226 0.0 0.0 0.00 0.30 0.30 95 1015.7
20260508023119 53 226 0.0 0.0 0.00 0.30 0.30 94 1015.7
20260508022615 54 226 0.0 0.0 0.00 0.30 0.30 94 1015.4
20260508022112 54 228 0.0 0.0 0.00 0.30 0.30 94 1015.5
20260508021608 54 228 0.0 0.0 0.00 0.30 0.30 94 1015.6
20260508021104 54 228 0.0 0.0 0.00 0.30 0.30 94 1015.8
20260508020602 54 228 0.0 0.0 0.00 0.30 0.30 94 1015.5
20260508020059 54 229 0.0 0.0 0.00 0.30 0.30 94 1015.5
20260508015557 55 229 0.0 0.0 0.00 0.30 0.30 94 1015.4
20260508015053 55 227 0.0 0.0 0.00 0.30 0.30 93 1015.4
20260508014549 55 221 0.0 0.0 0.00 0.30 0.30 93 1015.5
20260508014046 55 229 0.0 0.0 0.00 0.30 0.30 92 1015.3
20260508013542 55 229 0.0 0.0 0.00 0.30 0.30 92 1015.4
20260508013039 55 228 0.0 0.0 0.00 0.30 0.30 91 1015.2
20260508012537 55 234 0.0 0.0 0.00 0.30 0.30 91 1015.1
20260508012034 56 236 0.0 0.0 0.00 0.30 0.30 91 1015.1
20260508011532 56 233 0.0 0.0 0.00 0.30 0.30 90 1014.8
20260508011029 56 233 0.0 0.0 0.00 0.30 0.30 88 1014.8
20260508010526 57 233 0.0 0.0 0.00 0.30 0.30 89 1014.8
20260508010023 57 233 0.0 0.0 0.00 0.30 0.30 89 1014.6
20260508005520 57 233 0.0 0.0 0.00 0.30 0.30 88 1014.5
20260508005017 58 233 0.0 0.0 0.00 0.30 0.30 88 1014.5
20260508004513 58 233 0.0 0.0 0.00 0.30 0.30 86 1014.4
20260508004010 59 233 0.0 0.0 0.00 0.30 0.30 85 1014.5
20260508003506 59 233 0.0 0.0 0.00 0.30 0.30 85 1014.4
20260508003004 60 233 0.0 0.0 0.00 0.30 0.30 86 1014.1
20260508002459 59 233 0.0 0.0 0.00 0.30 0.30 85 1014.2
20260508001956 60 233 0.0 0.0 0.00 0.30 0.30 87 1014.5
20260508001452 60 233 0.0 0.0 0.00 0.30 0.30 85 1014.1
20260508000949 61 233 0.0 0.0 0.00 0.30 0.30 83 1014.3
20260508000444 61 233 0.0 0.0 0.00 0.30 0.30 80 1014.0
20260507235942 62 233 0.0 0.0 0.00 0.30 0.30 75 1013.9
20260507235438 62 233 0.0 0.0 0.00 0.30 0.30 74 1014.0
20260507234936 63 233 0.0 1.0 0.00 0.30 0.30 73 1014.2
20260507234433 63 233 0.0 1.0 0.00 0.30 0.30 72 1013.9
20260507233929 64 233 1.0 1.0 0.00 0.30 0.30 73 1013.8
20260507233426 64 233 0.0 1.0 0.00 0.30 0.30 66 1013.8
20260507232925 64 233 0.0 1.0 0.00 0.30 0.30 73 1013.8
20260507232420 64 233 0.0 1.0 0.00 0.30 0.30 67 1013.8
20260507231918 64 233 1.0 1.0 0.00 0.30 0.30 66 1013.8
20260507231414 64 233 0.0 1.0 0.00 0.30 0.30 70 1013.8
20260507230911 64 233 0.0 1.0 0.00 0.30 0.30 69 1013.8
20260507230408 65 233 0.0 0.0 0.00 0.30 0.30 71 1013.8
20260507225908 65 233 0.0 0.0 0.00 0.30 0.30 66 1013.8
20260507225405 66 243 0.0 1.0 0.00 0.30 0.30 62 1013.8
20260507224901 66 231 0.0 1.0 0.00 0.30 0.30 63 1013.7
20260507224357 66 229 0.0 1.0 0.00 0.30 0.30 63 1013.7
20260507223854 66 233 0.0 1.0 0.00 0.30 0.30 60 1013.6
20260507223350 66 236 1.0 2.0 0.00 0.30 0.30 63 1013.8
20260507222847 67 233 1.0 1.0 0.00 0.30 0.30 63 1013.8
20260507222343 67 233 0.0 1.0 0.00 0.30 0.30 61 1013.8
20260507221841 67 229 0.0 0.0 0.00 0.30 0.30 60 1013.5
20260507221337 66 233 1.0 1.0 0.00 0.30 0.30 62 1013.7
20260507220833 65 238 1.0 2.0 0.00 0.30 0.30 61 1013.8
20260507220332 66 226 1.0 1.0 0.00 0.30 0.30 67 1013.6
20260507215828 66 231 0.0 0.0 0.00 0.30 0.30 64 1013.7
20260507215325 66 231 0.0 1.0 0.00 0.30 0.30 62 1013.4
20260507214822 67 234 1.0 1.0 0.00 0.30 0.30 61 1013.7
20260507214319 67 233 0.0 0.0 0.00 0.30 0.30 60 1013.7
20260507213814 67 233 2.0 2.0 0.00 0.30 0.30 60 1013.3
20260507213311 67 233 0.0 1.0 0.00 0.30 0.30 59 1013.5
20260507212808 68 233 1.0 1.0 0.00 0.30 0.30 61 1013.4
20260507212307 68 236 0.0 1.0 0.00 0.30 0.30 59 1013.2
20260507211801 68 163 0.0 1.0 0.00 0.30 0.30 60 1013.4
20260507211257 67 235 1.0 1.0 0.00 0.30 0.30 59 1013.5
20260507210754 68 236 1.0 1.0 0.00 0.30 0.30 60 1013.5
20260507210251 68 227 0.0 1.0 0.00 0.30 0.30 65 1013.1
20260507205748 67 247 1.0 2.0 0.00 0.30 0.30 61 1013.2
20260507205245 66 233 1.0 1.0 0.00 0.30 0.30 63 1013.3
20260507204741 65 233 0.0 1.0 0.00 0.30 0.30 66 1013.3
20260507204239 65 232 0.0 0.0 0.00 0.30 0.30 68 1013.2
20260507203736 66 228 0.0 0.0 0.00 0.30 0.30 71 1013.1
20260507203233 66 231 0.0 1.0 0.00 0.30 0.30 64 1013.1
20260507202730 67 231 0.0 1.0 0.00 0.30 0.30 62 1012.9
20260507202226 67 233 1.0 2.0 0.00 0.30 0.30 62 1013.1
20260507201721 68 233 0.0 1.0 0.00 0.30 0.30 61 1013.2
20260507201218 69 209 1.0 1.0 0.00 0.30 0.30 62 1012.9
20260507200714 69 248 2.0 2.0 0.00 0.30 0.30 61 1013.0
20260507200210 69 241 2.0 2.0 0.00 0.30 0.30 62 1012.8
20260507195707 68 269 3.0 3.0 0.00 0.30 0.30 63 1013.0
20260507195204 69 264 2.0 2.0 0.00 0.30 0.30 62 1012.7
20260507194701 69 238 1.0 2.0 0.00 0.30 0.30 64 1012.9
20260507194156 69 233 0.0 0.0 0.00 0.30 0.30 66 1013.0
20260507193654 68 233 0.0 2.0 0.00 0.30 0.30 67 1012.9
20260507193151 68 267 1.0 1.0 0.00 0.30 0.30 64 1013.1
20260507192646 68 228 1.0 1.0 0.00 0.30 0.30 67 1013.0